Miscellaneous Local Product
Issued by NWS North Platte, NE

Home | Current Version | Previous Version | Graphics & Text | Print | Product List | Glossary On
Versions: 1 2 3 4 5 6 7 8 9 10 11 12 13 14 15 16 17 18 19 20 21 22 23 24 25 26 27 28 29 30 31 32 33 34 35 36 37 38 39 40 41 42 43 44 45 46 47 48 49 50
653
AXUS43 KLBF 052010
MISLBF


WESTERN AND NORTH CENTRAL NEBRASKA HOURLY WEATHER ROUNDUP
NATIONAL WEATHER SERVICE NORTH PLATTE NE
200 PM CST FRI FEB 05 2016

NOTE: "FAIR" INDICATES FEW OR NO CLOUDS BELOW 12,000 FEET WITH NO
SIGNIFICANT WEATHER AND/OR OBSTRUCTIONS TO VISIBILITY.

NOTE: STATIONS NOT REPORTING VARIABLES SUCH AS SKY/WEATHER OR
PRESSURE ARE PROVIDED BY THE NEBRASKA DEPARTMENT OF
ROADS...RAWS...AND APRS NETWORKS...AND ARE NOT UNDER
NATIONAL WEATHER SERVICE QUALITY CONTROL.

...OBSERVATIONS IN AND NEAR THE EASTERN PANHANDLE OF NEBRASKA...

CITY           SKY/WX    TMP DP  RH WIND       PRES   REMARKS
PINE RIDGE     PTSUNNY   36  24  62 NW10      30.23S WCI  28
CHADRON        SUNNY     36  25  64 W17G25    30.24S WCI  26
ALLIANCE       SUNNY     33  24  69 W18       30.21F WCI  22
SIDNEY         SUNNY     31  21  66 NW21      30.25F WCI  18
CRESCENT LAKE    N/A     35  23  61 NW15G22     N/A  WCI  25
BIG SPRINGS      N/A     34  25  69 NW10        N/A  WCI  26
$$

...OBSERVATIONS IN NORTH CENTRAL NEBRASKA...

CITY           SKY/WX    TMP DP  RH WIND       PRES   REMARKS
VALENTINE      CLOUDY    35  26  69 NW21G26   30.19F WCI  24
THEDFORD       CLOUDY    37  27  67 NW16G24   30.19F WCI  27
AINSWORTH      FLURRIES  35  28  77 NW21      30.18S WCI  23
O`NEILL        CLOUDY    38  29  70 NW15      30.16S WCI  30
ORD            CLOUDY    37  28  70 W10       30.17F WCI  30
BROKEN BOW     CLOUDY    38  27  64 NW13      30.18F WCI  30
VALENTINE NWR    N/A     35  25  67 NW16G26     N/A  WCI  25
BUTTE            N/A     34  32  92 W13G20      N/A  WCI  25
HALSEY           N/A     40  24  54 NW13G24     N/A  WCI  32
CHAMBERS         N/A     42  27  54 W5          N/A
EWING            N/A     39  32  76 W8          N/A  WCI  33
$$

...OBSERVATIONS IN SOUTHWEST NEBRASKA AND FAR NORTHEAST COLORADO...

CITY           SKY/WX    TMP DP  RH WIND       PRES   REMARKS
WRAY           FAIR      37  22  54 W18       30.27F WCI  27
HOLYOKE        FAIR      37  23  56 NW18G25   30.25F WCI  27
IMPERIAL       PTSUNNY   34  21  59 NW20G28   30.25F WCI  23
OGALLALA       MOSUNNY   34  23  63 NW13      30.23F WCI  25
NORTH PLATTE   PTSUNNY   36  26  67 NW10      30.21F WCI  28
MCCOOK         SUNNY     37  26  64 NW16      30.24F WCI  28
LEXINGTON      CLOUDY    35  26  69 W13       30.21F WCI  26
PAXTON           N/A     34  29  80 W6          N/A  WCI  29
STAPLETON        N/A     36  27  71 NW3         N/A
GOTHENBURG       N/A     37  26  65 W6          N/A  WCI  32
CALLAWAY         N/A     38  28  67 NW13        N/A  WCI  30
$$

...OBSERVATIONS IN CENTRAL LINCOLN COUNTY AREA...

CITY           SKY/WX    TMP DP  RH WIND       PRES   REMARKS
N.P. AIRPORT   PTSUNNY   36  26  67 NW10      30.21F WCI  28
N.P. DOWNTOWN    N/A     37  29  73 NW5         N/A  WCI  33
N.P. SOUTHEAST   N/A     38  28  68 NW3G12      N/A
N.P. HILLCREST   N/A     37  29  72 NW12G18     N/A  WCI  29
$$

...SOME OBSERVATIONS FROM AROUND THE REGION...

CITY           SKY/WX    TMP DP  RH WIND       PRES   REMARKS
DENVER         MOSUNNY   34  10  37 N7        30.29F WCI  28
LARAMIE        SUNNY     25  11  55 W13       30.23F WCI  14
CHEYENNE       SUNNY     29  10  45 NW16G28   30.23F WCI  17
SCOTTSBLUFF    SUNNY     34  20  56 W17       30.26F WCI  23
RAPID CITY     SUNNY     38  25  59 N15       30.20F WCI  29
BISMARCK       SUNNY     41  17  38 W14       30.16F
PIERRE         PTSUNNY   38  29  70 NW20      30.18S WCI  28
WINNER         CLOUDY    35  30  82 NW18      30.18S WCI  24
SIOUX FALLS    CLOUDY    29  24  82 SW12      30.15F WCI  19
OMAHA          LGT SNOW  29  27  92 S13       30.26F VSB 3/4 WCI  19
GRAND ISLAND   CLOUDY    35  29  78 W12       30.20F WCI  27
KANSAS CITY    PTSUNNY   39  21  48 W3        30.31F
WICHITA        PTSUNNY   51  23  33 S7        30.26F
OKLAHOMA CITY  PTSUNNY   54  25  32 S14G21    30.26F
LIBERAL        CLOUDY    39  18  41 N18       30.24F WCI  30
HAYS           SUNNY     37  16  41 W7        30.28F WCI  32
GOODLAND       SUNNY     35  21  56 NW20      30.27F WCI  24
$$




USA.gov is the U.S. government's official web portal to all federal, state and local government web resources and services.